User: anonymous
Location: Caltech
(34.1382°N, 118.1253°W)
Time: 03:00:03
(UTC-07:00)
Language:

Hamsat - Orbit

View from above orbital plane
View from above orbital plane
View from above satellite
View from above satellite

Ground track
Ground track

The orbit data is extracted from the following two-line orbital elements,

1 28650U 05017B   14238.06792430  .00001035  00000-0  12479-3 0  8278
2 28650 097.5627 239.5549 0023298 287.6628 072.2045 14.85686856503600
Epoch (UTC): 26 August 2014 01:37:48
Eccentricity: 0.0023298
inclination: 97.5627°
perigee height: 595 km
apogee height: 628 km
right ascension of ascending node: 239.5549°
argument of perigee: 287.6628°
revolutions per day: 14.85686856
mean anomaly at epoch: 72.2045°
orbit number at epoch: 50360

The dashed part of the orbit path shows where the satellite is in the earth's shadow,  

DLR